GW4332 Weather Reports


time (UTC)temp
C
wind
direction
speed
KPH
gust
KPH
rain 1hr
cm
rain 24hr
cm
rain mn
cm
humidity
%
barometer
mb
20260508164030 18 73 0.0 6.4 0.00 0.00 0.00 47 1017.6
20260508163029 18 101 1.6 11.3 0.00 0.00 0.00 46 1017.5
20260508162030 18 121 3.2 17.7 0.00 0.00 0.00 46 1017.5
20260508161029 18 98 0.0 11.3 0.00 0.00 0.00 46 1017.6
20260508160030 18 118 1.6 14.5 0.00 0.00 0.00 46 1017.6
20260508155030 18 120 1.6 14.5 0.00 0.00 0.00 46 1017.6
20260508154030 18 91 1.6 11.3 0.00 0.00 0.00 46 1017.7
20260508153029 18 99 3.2 14.5 0.00 0.00 0.00 47 1017.8
20260508152030 18 98 1.6 6.4 0.00 0.00 0.00 46 1017.8
20260508151029 18 61 3.2 11.3 0.00 0.00 0.00 45 1017.9
20260508150030 18 83 3.2 17.7 0.00 0.00 0.00 46 1017.8
20260508145030 19 82 6.4 14.5 0.00 0.00 0.00 45 1017.8
20260508144030 19 57 3.2 12.9 0.00 0.00 0.00 43 1017.8
20260508143030 20 105 4.8 19.3 0.00 0.00 0.00 42 1017.9
20260508142029 20 58 4.8 17.7 0.00 0.00 0.00 44 1017.9
20260508141030 19 88 6.4 19.3 0.00 0.00 0.00 45 1018.0
20260508140030 19 86 6.4 19.3 0.00 0.00 0.00 45 1018.0
20260508135030 19 87 4.8 19.3 0.00 0.00 0.00 44 1018.0
20260508134029 19 106 4.8 17.7 0.00 0.00 0.00 46 1018.1
20260508133030 19 119 3.2 19.3 0.00 0.00 0.00 46 1018.1
20260508132029 18 153 3.2 20.9 0.00 0.00 0.00 47 1018.1
20260508131030 18 105 8.0 29.0 0.00 0.00 0.00 49 1018.2
20260508130029 18 60 3.2 16.1 0.00 0.00 0.00 50 1018.2
20260508125029 17 86 0.0 17.7 0.00 0.00 0.00 52 1018.3
20260508124030 16 124 3.2 12.9 0.00 0.00 0.00 53 1018.3
20260508123030 16 81 9.7 22.5 0.00 0.00 0.00 52 1018.3
20260508122030 16 111 4.8 22.5 0.00 0.00 0.00 53 1018.3
20260508121030 16 91 11.3 22.5 0.00 0.00 0.00 53 1018.4
20260508120030 16 110 4.8 16.1 0.00 0.00 0.00 53 1018.3
20260508115030 17 149 4.8 27.4 0.00 0.00 0.00 53 1018.4
20260508114029 17 104 6.4 24.1 0.00 0.00 0.00 56 1018.4
20260508113030 16 103 6.4 24.1 0.00 0.00 0.00 56 1018.4
20260508112029 16 91 9.7 32.2 0.00 0.00 0.00 59 1018.6
20260508111030 15 107 8.0 29.0 0.00 0.00 0.00 59 1018.5
20260508110029 15 60 4.8 25.7 0.00 0.00 0.00 58 1018.6
20260508105030 15 121 9.7 38.6 0.00 0.00 0.00 60 1018.6
20260508104029 15 100 8.0 24.1 0.00 0.00 0.00 61 1018.7
20260508103030 15 111 8.0 33.8 0.00 0.00 0.00 62 1018.7
20260508102029 14 226 1.6 22.5 0.00 0.00 0.00 64 1018.7
20260508101029 14 320 1.6 32.2 0.00 0.00 0.00 64 1018.7
20260508100030 14 111 3.2 33.8 0.00 0.00 0.00 65 1018.7
20260508095029 13 137 3.2 29.0 0.00 0.00 0.00 66 1018.8
20260508094030 13 270 1.6 25.7 0.00 0.00 0.00 66 1018.8
20260508093029 13 185 3.2 30.6 0.00 0.00 0.00 67 1018.8
20260508092030 13 102 3.2 24.1 0.00 0.00 0.00 67 1018.8
20260508091030 13 93 6.4 30.6 0.00 0.00 0.00 69 1018.8
20260508090029 12 121 6.4 30.6 0.00 0.00 0.00 70 1018.9
20260508085030 12 268 1.6 19.3 0.00 0.00 0.00 71 1018.9
20260508084030 12 289 1.6 17.7 0.00 0.00 0.00 72 1019.0
20260508083029 12 130 3.2 25.7 0.00 0.00 0.00 73 1019.0
20260508082030 12 102 4.8 22.5 0.00 0.00 0.00 74 1019.0
20260508081029 11 91 8.0 27.4 0.00 0.00 0.00 75 1018.9
20260508080030 11 124 6.4 22.5 0.00 0.00 0.00 75 1018.9
20260508075030 11 127 8.0 25.7 0.00 0.00 0.00 75 1019.0
20260508074029 11 274 1.6 24.1 0.00 0.00 0.00 75 1019.0
20260508073030 11 90 9.7 29.0 0.00 0.00 0.00 76 1018.9
20260508072029 11 103 3.2 24.1 0.00 0.00 0.00 77 1019.1
20260508071030 10 139 3.2 24.1 0.00 0.00 0.00 77 1019.0
20260508070030 10 188 1.6 22.5 0.00 0.00 0.00 78 1019.0
20260508065030 10 77 3.2 22.5 0.00 0.00 0.00 79 1018.9
20260508064030 10 116 6.4 20.9 0.00 0.00 0.00 80 1018.9
20260508063030 10 150 1.6 16.1 0.00 0.00 0.00 81 1018.8
20260508062030 10 52 1.6 14.5 0.00 0.00 0.00 82 1018.7
20260508061030 10 97 3.2 17.7 0.00 0.00 0.00 82 1018.6
20260508060029 10 87 4.8 19.3 0.00 0.00 0.00 83 1018.5
20260508055030 10 84 3.2 19.3 0.00 0.00 0.00 83 1018.4
20260508054029 9 97 0.0 19.3 0.00 0.00 0.00 83 1018.3
20260508053030 9 278 0.0 11.3 0.00 0.00 0.00 84 1018.2
20260508052029 9 115 1.6 19.3 0.00 0.00 0.00 85 1018.2
20260508051029 9 138 1.6 19.3 0.00 0.00 0.00 84 1018.1
20260508050030 9 108 1.6 17.7 0.00 0.00 0.00 85 1018.1
20260508045029 8 81 1.6 17.7 0.00 0.00 0.00 85 1018.1
20260508044030 8 199 3.2 14.5 0.00 0.00 0.00 85 1018.1
20260508043029 8 108 0.0 14.5 0.00 0.00 0.00 84 1018.0
20260508042030 8 74 1.6 14.5 0.00 0.00 0.00 84 1018.0
20260508041030 8 183 0.0 14.5 0.00 0.00 0.00 84 1017.9
20260508040030 8 91 1.6 11.3 0.00 0.00 0.00 84 1017.9
20260508035030 8 91 1.6 12.9 0.00 0.00 0.00 83 1018.0
20260508034029 9 99 3.2 14.5 0.00 0.00 0.00 83 1018.0
20260508033030 9 71 1.6 11.3 0.00 0.00 0.00 83 1017.9
20260508032030 9 102 3.2 11.3 0.00 0.00 0.00 82 1017.9
20260508031030 9 107 1.6 12.9 0.00 0.00 0.00 82 1017.8
20260508030030 9 130 0.0 16.1 0.00 0.00 0.00 82 1017.8
20260508025030 9 356 0.0 12.9 0.00 0.00 0.00 82 1017.8
20260508024029 9 120 1.6 14.5 0.00 0.00 0.00 81 1017.8
20260508023030 9 86 3.2 17.7 0.00 0.00 0.00 81 1017.8
20260508022029 9 136 1.6 16.1 0.00 0.00 0.00 81 1017.8
20260508021029 9 115 3.2 19.3 0.00 0.00 0.00 81 1017.8
20260508020030 10 106 3.2 17.7 0.00 0.00 0.00 80 1017.6
20260508015029 10 124 3.2 16.1 0.00 0.00 0.00 80 1017.7
20260508014030 10 142 3.2 16.1 0.00 0.00 0.00 79 1017.8
20260508013030 10 136 3.2 17.7 0.00 0.00 0.00 79 1017.8
20260508012030 10 144 1.6 22.5 0.00 0.00 0.00 79 1017.8
20260508011029 10 120 3.2 19.3 0.00 0.00 0.00 78 1017.9
20260508010030 10 115 4.8 17.7 0.00 0.00 0.00 78 1018.0
20260508005030 10 120 3.2 19.3 0.00 0.00 0.00 78 1018.0
20260508004030 10 143 3.2 14.5 0.00 0.00 0.00 78 1017.8
20260508003029 10 127 3.2 14.5 0.00 0.00 0.00 77 1017.9
20260508002030 10 102 3.2 12.9 0.00 0.00 0.00 77 1017.9
20260508001029 10 123 3.2 14.5 0.00 0.00 0.00 76 1017.9
20260508000030 10 117 3.2 16.1 0.00 0.00 0.00 75 1017.8
20260507235030 10 129 1.6 14.5 0.00 0.00 0.00 75 1017.9
20260507234029 10 123 1.6 11.3 0.00 0.00 0.00 74 1017.9
20260507233030 10 105 1.6 14.5 0.00 0.00 0.00 74 1017.9
20260507232029 11 88 3.2 16.1 0.00 0.00 0.00 73 1017.9
20260507231030 11 136 3.2 16.1 0.00 0.00 0.00 73 1017.9
20260507230030 11 267 1.6 20.9 0.00 0.00 0.00 72 1017.9
20260507225029 11 95 3.2 19.3 0.00 0.00 0.00 71 1017.9
20260507224030 11 139 3.2 19.3 0.00 0.00 0.00 71 1017.8
20260507223029 11 135 3.2 19.3 0.00 0.00 0.00 70 1017.9
20260507222030 12 89 6.4 20.9 0.00 0.00 0.00 69 1017.9
20260507221030 12 126 3.2 20.9 0.00 0.00 0.00 69 1017.8
20260507220029 12 93 9.7 20.9 0.00 0.00 0.00 69 1017.8
20260507215030 12 110 4.8 17.7 0.00 0.00 0.00 68 1017.8
20260507214029 12 107 6.4 16.1 0.00 0.00 0.00 68 1017.8
20260507213030 12 183 1.6 16.1 0.00 0.00 0.00 68 1017.8
20260507212030 12 132 4.8 19.3 0.00 0.00 0.00 68 1017.7
20260507211030 13 132 4.8 20.9 0.00 0.00 0.00 69 1017.7
20260507210029 13 124 3.2 20.9 0.00 0.00 0.00 70 1017.7
20260507205030 13 101 8.0 17.7 0.00 0.00 0.00 70 1017.7
20260507204029 12 107 8.0 16.1 0.00 0.00 0.00 70 1017.6
20260507203030 12 87 8.0 14.5 0.00 0.00 0.00 69 1017.5
20260507202029 12 80 9.7 16.1 0.00 0.00 0.00 69 1017.5
20260507201030 13 78 8.0 14.5 0.00 0.00 0.00 69 1017.2
20260507200029 13 69 8.0 19.3 0.00 0.00 0.00 68 1017.1
20260507195030 13 59 8.0 16.1 0.00 0.00 0.00 68 1017.1
20260507194029 13 66 8.0 14.5 0.00 0.00 0.00 67 1017.0
20260507193030 13 52 9.7 16.1 0.00 0.00 0.00 66 1016.9
20260507192030 13 45 9.7 17.7 0.00 0.00 0.00 66 1016.8
20260507191029 13 37 12.9 19.3 0.00 0.00 0.00 64 1016.8
20260507190029 13 45 12.9 19.3 0.00 0.00 0.00 62 1016.7
20260507185030 14 38 12.9 19.3 0.00 0.00 0.00 61 1016.6
20260507184030 14 43 12.9 19.3 0.00 0.00 0.00 61 1016.5
20260507183029 14 47 12.9 22.5 0.00 0.00 0.00 62 1016.4
20260507182030 14 36 9.7 17.7 0.00 0.00 0.00 66 1016.4
20260507181029 14 33 12.9 24.1 0.00 0.00 0.00 65 1016.3
20260507180030 14 38 9.7 20.9 0.00 0.00 0.00 65 1016.3
20260507175029 15 23 9.7 19.3 0.00 0.00 0.00 62 1016.3
20260507174030 15 28 12.9 22.5 0.00 0.00 0.00 60 1016.3
20260507173030 15 23 11.3 19.3 0.00 0.00 0.00 58 1016.1
20260507172029 15 357 11.3 20.9 0.00 0.00 0.00 59 1016.1
20260507171030 15 20 11.3 17.7 0.00 0.00 0.00 58 1016.3
20260507170029 15 353 14.5 20.9 0.00 0.00 0.00 59 1016.2
20260507165029 15 352 9.7 16.1 0.00 0.00 0.00 57 1016.1